Miscellaneous Local Product
Issued by NWS Hastings, NE

Home | Current Version | Previous Version | Graphics & Text | Print | Product List | Glossary On
Versions: 1 2 3 4 5 6 7 8 9 10 11 12 13 14 15 16 17 18 19 20 21 22 23 24 25 26 27 28 29 30 31 32 33 34 35 36 37 38 39 40 41 42 43 44 45 46 47 48 49 50
000
AXUS43 KGID 292102
MISGRI

GID CWA HOURLY WEATHER ROUNDUP
NATIONAL WEATHER SERVICE HASTINGS NE
400 PM CDT MON SEP 29 2014

NOTE: "FAIR" INDICATES FEW OR NO CLOUDS BELOW 12,000 FEET WITH NO
SIGNIFICANT WEATHER AND/OR OBSTRUCTIONS TO VISIBILITY.

...SOUTH CENTRAL NEBRASKA...

CITY           SKY/WX    TMP DP  RH WIND       PRES   REMARKS
GRAND ISLAND   SUNNY     83  52  34 S13       29.96F
HASTINGS       MOSUNNY   81  48  31 S13G20    29.95F
KEARNEY        MOSUNNY   82  54  36 SE16G24   29.95F
ORD            CLOUDY    81  54  39 SE12      29.93F
YORK           MOSUNNY   82  55  39 SE9G16    29.97F
AURORA         MOSUNNY   82  47  29 S13       29.96F
LEXINGTON      MOSUNNY   83  54  36 S17G28    29.92F
HOLDREGE       PTSUNNY   79  53  40 SE16      29.93F
HEBRON         MOSUNNY   84  46  26 SE12G17   29.96F

...NEBRASKA PANHANDLE...

CITY           SKY/WX    TMP DP  RH WIND       PRES   REMARKS
CHADRON        CLOUDY    54  53  97 N8        29.95F
ALLIANCE       CLOUDY    63  59  87 E7        29.92F
SCOTTSBLUFF    CLOUDY    64  56  75 E7        29.92F
SIDNEY         CLOUDY    69  57  65 NE9       29.90F

...WESTERN AND NORTH CENTRAL NEBRASKA...

CITY           SKY/WX    TMP DP  RH WIND       PRES   REMARKS
VALENTINE      CLOUDY    70  57  63 E13       29.94F
AINSWORTH      CLOUDY    73  59  62 E13G18    29.94F
ONEILL         MOSUNNY   79  63  58 E15       29.95F
BROKEN BOW     PTSUNNY   82  54  37 S17G26    29.93F
IMPERIAL       MOSUNNY   81  54  39 SE25G35   29.86F
NORTH PLATTE   CLOUDY    82  51  34 SE16G28   29.88F
MCCOOK         CLOUDY    81  52  36 SE16G29   29.89F

...EASTERN NEBRASKA...

CITY           SKY/WX    TMP DP  RH WIND       PRES   REMARKS
NORFOLK        SUNNY     83  56  39 SE13      29.96F
SO SIOUX CITY  SUNNY     80  64  58 E10       29.97F
TEKAMAH        PTSUNNY   86  55  34 W5        29.96F
COLUMBUS       SUNNY     82  57  42 SE7       29.97F
ALBION         SUNNY     80  52  37 S12G17    29.96F
OMAHA EPPLEY   MOSUNNY   83  57  41 S5        29.97F
OFFUTT AFB     MOSUNNY   83  59  43 S5        29.97F
MILLARD        SUNNY     83  60  45 SE5       29.97F
LINCOLN        MOSUNNY   84  57  39 S10       29.97F
NEBRASKA CITY  MOSUNNY   82  49  31 SE6       29.98F
BEATRICE       MOSUNNY   83  56  39 S9        29.97F
FALLS CITY     MOSUNNY   83  54  36 CALM      29.97F

...NORTHERN KANSAS...

CITY           SKY/WX    TMP DP  RH WIND       PRES   REMARKS
GOODLAND       PTSUNNY   82  54  37 S30G37    29.87F
HILL CITY      PTSUNNY   83  52  34 S16G26    29.91F
NORTON         MOCLDY    81  45  28 SE17G28   29.91
PHILLIPSBURG   MOSUNNY   82  50  32 SE13G21   29.92F
SMITH CENTER   PTSUNNY   84  52  32 S13G23    29.94F
BELOIT         MOSUNNY   82  54  36 SE9       29.93F
HAYS           SUNNY     82  54  36 S20       29.93F
RUSSELL        SUNNY     83  55  38 SE16      29.93F
CONCORDIA      SUNNY     83  56  39 SE9       29.96F
SALINA         SUNNY     84  57  39 SE9       29.95F
TOPEKA         SUNNY     86  57  37 SE7       29.97F



USA.gov is the U.S. government's official web portal to all federal, state and local government web resources and services.